Location: Unspecified
(0.0000°N, 0.0000°E)
Time: 16:45:21
(UTC+00:00)

deb Kosmos-252 - Visible Passes

Search period start: 21 May 2026 00:00
Search period end: 31 May 2026 00:00
Orbit: 508 x 1409 km, 62.3° (Epoch: 21 May)

Date Brightness Start Highest point End Pass type
(mag) Time Alt. Az. Time Alt. Az. Time Alt. Az.
21 May ? 18:20:47 10° S 18:27:38 26° ESE 18:33:53 10° ENE visible
21 May ? 20:07:19 10° SW 20:15:32 49° WNW 20:22:37 10° N visible
22 May ? 18:39:47 10° S 18:48:06 48° ESE 18:55:26 10° NE visible
22 May ? 20:29:05 10° WSW 20:35:38 25° WNW 20:41:29 10° NNW visible
23 May ? 18:59:41 10° SSW 19:08:27 88° ESE 19:16:00 10° NNE visible
23 May ? 20:53:39 10° W 20:55:45 11° WNW 20:57:46 10° NW visible
24 May ? 19:20:23 10° SW 19:28:38 50° WNW 19:35:48 10° N visible
25 May ? 19:42:05 10° WSW 19:48:44 26° WNW 19:54:41 10° NNW visible
26 May ? 18:12:45 10° SSW 18:21:32 86° ESE 18:29:06 10° NNE visible
26 May ? 20:06:20 10° W 20:08:50 12° WNW 20:11:15 10° NW visible
27 May ? 05:32:20 10° NNE 05:35:32 23° ENE 05:39:07 10° ESE visible
27 May ? 18:33:24 10° SW 18:41:43 51° WNW 18:48:55 10° N visible
28 May ? 18:55:03 10° WSW 19:01:48 26° WNW 19:07:51 10° NNW visible
29 May ? 19:19:03 10° W 19:21:54 12° WNW 19:24:37 10° NW visible
30 May ? 04:45:30 10° NNE 04:48:38 22° ENE 04:52:07 10° ESE visible
